Reflectivity
-13 -20 -20 -10 -20 -10 12 -15 -20 -20 -20 -20 -20 -20 -16 -20 -20 -20 -13 -20 -20 -20 -20 -20 -20 -20 -20 -20 -5 -20 -20 -20 -20 -20 -20 -20 -20 -20 -20 -20 -13 27 -12
-18 -20 -20 3 -19 -16 -20 -18 -19 -20 -20 -20 -20 -20 -20 -6 -10 -20 -4 -20 -16 -20 -20 -20 -0 -0 -19 -20 -20 -20 -20 -20 -20 -20 -20 -20 -20 -20 -20 -20 -15 -20 -20
8 -20 -20 8 3 -20 -20 -20 -20 -20 -20 -20 -17 -20 -20 -18 -20 -20 -19 -20 -20 -20 -20 -1 2 -9 -12 -20 -20 -20 -20 -20 -20 -20 -20 -20 -20 -20 -20 -20 1 4 -2
-20 -20 -20 -16 -20 -20 -18 -20 -20 -20 -20 -20 7 -20 -20 -19 -10 -1 -20 -8 -19 -20 -20 -20 -19 -20 -20 -20 -20 -20 -20 -20 -20 -20 -20 -20 -20 -20 -20 -20 -20 -20 -20
-20 -20 -20 -20 -11 10 -20 -20 -20 11 -20 -20 -20 -20 -20 -20 -20 -20 -20 -20 -8 -20 -20 -20 -20 -20 -20 -20 -20 -20 -20 -20 -20 -20 -8 -16 -20 -20 -20 -20 -20 -20 -20
7 -20 -20 -20 -20 -20 -20 -20 -20 -19 -20 -20 -20 3 -20 -20 -20 -20 -20 -20 -20 -20 12 -20 -20 -20 -20 -20 -20 -20 -20 -20 -20 -20 -20 -3 -19 -20 -20 -20 -20 -20 -20
-14 -20 -17 -6 -10 -20 -20 -20 -20 -20 -20 -20 -20 -20 -20 -20 -20 -20 -20 -20 -20 -20 -20 -20 -20 -20 -20 -20 -20 -20 -20 -20 -20 -20 -20 -20 -20 21 1 6 -15 -12 -20
-15 -15 -20 -20 -19 -20 -20 -20 -20 -20 -20 -20 -11 -20 -20 -17 -20 -20 -20 -20 -20 -20 -20 -20 -20 -20 -20 -20 -20 -20 -20 -20 -20 -20 -20 -20 -20 -20 -20 19 18 6 -7
-6 9 -10 -20 -20 -20 -20 -20 -20 -20 -20 -20 -20 -20 -20 -20 -17 -20 -20 -20 -20 -20 -20 -20 -20 -20 -20 -20 -20 -20 -20 -20 -20 -20 -20 -20 -20 -20 -20 -20 -19 -20 -4
-20 -20 -20 -20 -20 -20 -20 -20 -20 -20 -20 -20 -20 -20 -20 -20 -20 -20 -20 36 -12 -20 -20 -20 -20 -20 -20 -20 -20 -20 -20 -20 -20 -20 -20 -20 -20 -20 -20 -20 -20 27 -20
1 -15 -20 -20 -20 0 -20 -20 -20 -20 -20 -20 -20 -20 -20 -20 -8 -20 -14 -4 35 -18 -20 -20 -20 -20 -20 -20 -20 -20 -20 -20 -20 -20 -20 -20 -20 -20 -20 -20 -20 -20 1
-20 -20 -20 -20 -20 -20 -20 -20 -20 -20 -20 -20 -19 8 15 -20 -20 -20 12 40 35 19 -20 -20 -20 -17 -20 -20 -20 -20 -20 -20 -20 -20 -20 -20 -20 -20 -20 -20 -20 -20 -10
-20 -20 -20 -20 -20 -20 -20 -20 -20 -14 -20 -20 -14 -13 -2 -12 -20 -20 12 25 8 -0 -13 -9 -20 -20 -20 -20 -20 -20 -20 -20 -20 -20 -20 -20 -20 -20 -20 -20 -20 -20 -20
-20 -20 -20 -20 -20 -20 -20 -20 -20 -20 -20 -20 -20 -20 -20 -20 -20 -20 -8 -2 11 -20 -20 -20 -20 -20 -20 -20 -20 -20 -20 -20 -20 -20 -20 -20 -20 -20 -20 -20 -20 -20 -7
-20 -20 -20 -20 -20 -20 -20 -20 -20 -20 -20 -20 -20 -20 -20 -20 -20 -20 -20 -20 -14 -18 -20 -20 -20 -20 -20 -20 -20 -20 5 -12 -20 -20 -20 -20 -20 -20 -20 -20 -20 -20 -20
-20 -20 -20 -20 -20 -20 -20 -20 -20 -20 -20 -20 -20 -20 -20 -20 -20 -20 -20 -15 -20 -20 -20 -20 -20 -20 -20 -20 -20 -20 -20 -20 -20 -20 -7 -20 -20 -20 -20 -20 -20 -20 1
-20 -20 -20 -20 -20 -20 -20 -20 -20 -20 -20 -20 -20 -20 -20 -20 -20 -16 -20 -20 -20 -20 -20 -20 -20 -20 -20 -20 -20 -20 -20 -20 -20 -20 -3 11 7 -20 -20 -20 -6 -20 -20
-20 -20 -20 -20 -20 -20 -20 -20 -20 -20 -20 -20 -20 -20 -20 -20 -20 -20 -20 -20 -20 -20 -20 -20 -20 -20 -20 -20 -20 -20 -20 -20 -20 -20 -20 -20 -20 -20 5 -20 -19 -2 -20
-20 -20 -20 -20 -20 -20 -20 -20 -20 -20 -20 -20 -20 -20 -20 -20 -20 -20 -20 -20 -20 -20 -20 -20 -20 -20 -20 -20 -20 -20 -20 -20 -20 -20 -20 -20 -20 -20 -20 -20 -20 -20 -20
-20 -20 -20 -20 -20 -20 -20 -20 -20 -20 -20 -20 -20 -20 -20 -20 -20 -20 -20 -20 -20 -20 -20 -20 -20 -20 -20 -20 -20 -20 -20 -20 -20 -20 -20 -20 -20 -20 -20 -20 -20 -20 -20
-20 -20 -20 -20 -20 -20 -20 -20 -20 -20 -20 -20 -20 -20 -20 -20 -20 -20 -20 -20 -20 -20 -20 -20 -20 -20 -20 -20 -20 -20 -20 -20 -20 -20 -20 -20 -20 -20 -20 -20 -20 -20 -20
-20 -20 -20 -20 -20 -20 -20 -20 -20 -20 -20 -20 -20 -20 -20 -20 -20 -20 -20 -20 -20 -20 -20 -20 -20 -20 -20 -20 -20 -5 -20 -20 -20 -20 -20 -20 -20 -20 -20 -20 -20 -20 -20
-20 -20 -20 -20 -20 -20 -20 -20 -20 -20 -20 -20 -20 -20 -20 -20 -20 -20 -20 -20 -20 -20 -20 -20 -20 -20 -20 -20 -20 -3 -6 -20 -20 -20 -20 -20 -20 -20 -20 -20 -20 -20 -20
-20 -20 -20 -20 -20 -20 -20 -20 -20 -20 -20 -20 -20 -20 -20 -20 -20 -20 -20 -20 -20 -20 -20 -20 -20 -20 -20 -20 -20 -20 -4 4 8 -10 -20 -20 -20 -20 -20 -20 -20 -20 -20
-20 -20 -20 -20 -20 -20 -20 -20 -20 -20 -20 -20 -20 -20 -20 -20 -20 -20 -20 -20 -20 -20 -20 -20 -20 -20 -20 -20 -20 -20 -12 9 7 15 4 -20 -20 -20 -20 -20 -20 -20 -20
-20 -20 -20 -20 -20 -20 -20 -20 -20 -20 -20 -20 -20 -20 -20 -20 -20 -20 -20 -20 -20 -20 -20 -20 -20 -20 -20 -20 -20 -20 -17 13 -20 -11 -6 -19 -20 -20 -20 -20 -20 -20 -20
Wind_Speed
3 7 11 10 10 10 10 13 13 12 11 11 11 11 11 12 12 11 11 10 10 10 10 11 11 11 11 12 12 12 12 11 11 11 10 10 11 11 10 10 8 12 15
11 9 11 10 11 12 11 12 11 10 10 10 10 11 11 11 11 10 9 9 10 10 10 10 11 11 12 11 10 10 9 9 8 7 8 8 9 10 13 11 10 12 15
12 10 9 10 10 11 12 12 11 11 9 10 11 11 11 10 10 8 8 7 9 9 10 11 12 11 11 10 9 8 6 7 6 4 2 3 4 11 12 10 10 14 13
12 10 9 11 12 11 11 11 11 11 10 9 10 10 9 8 9 8 7 8 7 9 10 9 10 10 9 9 8 7 6 6 6 6 3 4 5 9 10 11 11 11 12
8 9 10 10 10 11 11 10 10 10 10 10 9 8 8 7 7 6 4 6 5 8 9 8 8 9 8 7 6 5 6 8 9 8 4 4 4 8 10 10 11 11 10
11 8 11 11 10 10 10 9 8 9 9 9 8 7 8 6 5 6 6 6 7 7 8 7 6 6 6 6 5 4 6 8 8 6 5 7 5 6 10 11 11 11 11
8 7 11 15 14 12 10 8 8 8 8 7 7 6 6 7 6 6 5 6 6 7 6 6 5 4 4 3 3 3 5 6 5 6 6 5 5 5 7 11 11 11 10
7 8 9 13 14 12 11 9 7 7 7 7 7 5 5 5 5 4 4 4 5 6 6 6 5 5 4 3 2 1 5 7 5 4 1 5 8 8 4 8 10 10 10
6 7 5 6 9 10 9 8 7 5 8 8 7 6 5 4 3 2 2 2 2 4 5 6 6 5 5 4 3 2 3 7 3 3 3 3 7 7 6 5 7 8 9
6 6 6 6 5 5 5 8 6 7 9 9 8 6 6 5 6 10 6 1 2 3 3 4 6 6 6 5 5 5 4 6 3 3 2 3 8 7 5 4 5 8 9
3 5 5 4 4 4 4 4 7 6 8 8 6 5 5 4 4 6 7 13 2 0 1 2 4 5 6 6 6 6 5 3 4 2 3 8 7 7 5 3 3 7 8
3 3 5 4 4 2 3 2 2 4 3 3 2 2 4 4 3 5 4 9 10 2 2 3 3 4 5 3 3 5 2 4 4 3 3 11 9 7 5 4 5 6 7
5 3 4 4 4 4 4 2 3 3 3 3 5 5 2 2 4 2 2 2 3 2 1 2 2 1 2 2 3 3 4 4 3 2 3 9 10 9 7 4 6 8 9
6 5 4 4 6 6 4 4 4 4 4 4 5 6 5 3 4 4 3 1 2 3 3 2 2 4 2 2 2 3 5 4 3 2 2 6 5 6 7 7 5 7 10
5 4 5 6 6 5 7 4 5 5 4 4 5 6 5 5 5 4 4 3 3 3 3 4 3 3 4 4 3 3 3 4 4 2 1 4 5 4 6 7 8 8 10
6 5 4 6 6 6 6 7 5 4 4 5 4 5 6 4 4 4 4 4 4 3 3 3 3 3 2 2 3 3 4 4 3 3 1 1 2 3 5 8 10 11 12
6 7 7 6 6 7 6 5 5 4 4 4 4 6 6 5 5 4 3 3 3 3 5 4 4 4 4 4 4 3 4 5 5 4 3 3 2 3 6 9 11 13 14
8 8 7 6 6 6 6 4 4 4 4 4 4 4 6 6 6 5 4 3 3 3 2 2 3 4 4 4 4 5 4 4 5 5 4 4 3 3 5 9 11 14 16
8 9 8 7 6 5 5 5 5 6 5 4 4 4 6 6 6 5 4 4 5 4 4 2 3 3 2 4 4 4 4 4 5 3 5 5 5 5 4 6 10 10 12
7 8 7 7 6 6 4 4 4 4 4 4 4 5 6 5 6 5 4 5 5 3 3 2 1 1 2 2 4 5 5 5 5 5 6 5 4 5 5 6 5 4 8
7 7 7 7 5 3 3 4 3 2 2 3 4 5 5 5 5 5 4 5 5 4 4 3 1 2 2 2 2 3 4 6 6 6 5 3 5 5 5 5 4 3 4
7 7 6 7 6 5 3 2 2 2 2 3 2 4 5 5 5 4 4 4 5 4 5 5 4 3 2 3 2 3 4 5 4 3 2 3 6 4 5 5 4 3 3
8 8 7 6 6 4 4 3 3 3 3 3 3 2 3 4 4 5 5 4 5 4 3 4 4 4 2 3 4 2 3 2 4 3 2 3 4 3 5 5 5 3 3
7 7 8 7 6 5 6 5 5 3 2 1 0 1 3 5 4 4 5 5 5 4 5 4 4 3 3 4 3 3 4 4 3 4 3 3 3 5 5 4 5 5 4
9 8 7 7 6 6 6 6 4 3 1 1 3 5 6 6 6 4 5 5 5 4 4 5 5 6 3 2 2 4 6 4 4 4 8 4 2 4 4 4 5 5 5
9 8 7 7 6 6 6 6 6 5 3 4 4 4 3 3 4 5 5 4 3 3 3 3 3 4 4 6 4 3 4 4 3 3 3 4 5 5 3 4 4 4 4
Wind_Direction
129 129 131 125 129 113 119 125 121 120 121 120 119 121 123 112 104 96 96 100 98 89 90 92 90 85 82 76 76 75 77 78 76 75 72 75 79 76 75 88 99 95 95
139 133 128 122 131 111 105 105 114 123 122 125 124 126 126 118 110 105 103 108 101 96 93 93 100 94 84 82 79 75 76 76 82 82 84 87 83 73 86 85 95 96 93
135 136 124 118 112 113 114 110 107 111 116 121 125 126 123 120 118 115 115 110 106 104 99 92 89 90 87 81 77 70 63 67 62 58 86 72 93 101 100 92 90 88 95
140 137 123 122 116 112 116 114 112 110 109 110 111 114 118 125 117 111 116 115 110 110 102 96 96 96 93 85 72 55 37 37 29 351 255 177 136 114 115 110 104 107 105
125 124 118 115 114 112 105 108 107 108 107 108 106 110 113 119 116 109 123 125 116 108 113 114 117 113 102 91 76 41 8 11 5 17 47 103 128 140 137 126 121 117 112
70 93 106 110 106 99 103 101 105 111 107 108 109 99 108 108 113 99 93 126 127 127 127 126 122 124 118 104 81 39 1 359 356 12 84 79 75 160 152 140 136 133 129
75 69 95 97 91 88 89 95 111 115 120 119 115 116 111 115 112 104 105 127 135 146 146 144 139 136 131 122 94 36 352 347 9 14 89 79 81 77 171 160 150 145 141
96 81 89 93 93 90 85 85 91 111 122 124 121 118 120 119 110 113 113 114 143 159 165 168 164 166 165 170 148 30 336 345 6 28 292 102 96 83 117 168 156 158 157
64 76 79 90 89 91 99 97 91 112 126 114 108 106 110 122 130 126 116 137 166 168 179 185 187 191 195 203 198 195 294 318 356 341 174 126 110 99 102 180 177 174 172
69 87 75 72 92 84 81 79 80 99 106 95 73 67 60 71 71 42 9 77 203 186 185 201 204 215 209 213 225 215 257 296 302 315 244 158 135 122 114 113 192 195 183
99 110 109 110 100 107 94 84 81 114 82 64 54 69 84 56 51 84 52 335 271 354 258 239 221 225 231 236 235 226 251 276 287 304 202 167 154 135 137 167 184 187 195
92 64 110 136 123 141 145 113 80 113 102 65 265 269 113 126 146 127 122 245 272 256 272 270 266 251 242 228 249 237 234 272 282 292 228 175 175 163 152 181 208 227 208
123 82 62 67 109 105 52 66 74 90 103 125 56 40 80 86 100 167 188 223 249 269 328 230 322 270 250 236 245 218 225 243 275 284 233 202 187 183 189 205 224 222 217
95 111 82 69 68 56 70 66 73 69 64 46 41 48 51 58 68 59 60 2 40 353 34 19 19 335 295 285 265 230 231 243 258 253 246 212 231 206 204 217 243 225 223
105 97 88 76 77 76 68 61 56 59 68 75 54 40 43 42 37 37 24 33 33 27 34 21 21 28 2 344 12 5 305 287 276 271 242 199 210 248 241 239 244 233 227
127 100 87 80 79 72 68 64 54 54 63 60 54 61 58 57 41 30 16 16 14 11 23 16 356 336 335 321 309 320 308 310 307 316 308 216 238 256 270 264 255 256 245
142 125 94 79 73 75 73 65 52 41 59 56 59 51 53 55 50 39 26 9 11 3 15 5 358 22 11 347 311 306 287 285 287 281 274 265 254 249 268 272 268 258 257
137 131 110 90 70 71 77 76 62 49 56 59 60 52 40 43 42 35 22 6 344 2 19 30 19 14 20 0 335 318 309 288 281 285 281 276 257 245 244 256 263 260 257
145 137 121 116 112 94 87 84 66 57 47 49 50 43 38 36 35 32 10 354 7 8 5 329 17 69 12 327 325 319 329 320 302 292 272 279 262 242 231 248 253 257 259
141 129 128 126 121 104 88 76 52 57 48 47 44 40 39 30 30 25 14 8 15 12 18 349 325 303 216 273 307 306 293 283 271 253 254 257 278 281 244 230 242 255 257
132 123 120 106 99 88 75 99 68 62 37 45 36 48 40 27 26 33 16 10 8 14 348 6 352 279 325 262 330 315 299 265 260 253 244 250 269 271 312 279 233 235 266
144 133 122 115 102 98 102 112 131 140 95 89 36 49 30 21 23 31 28 14 15 9 2 358 26 337 282 290 287 326 329 327 334 285 255 246 270 284 279 292 264 218 255
138 136 122 111 106 93 83 81 63 62 58 36 14 16 349 24 34 36 25 23 12 18 1 349 347 347 289 313 331 247 313 283 339 320 310 237 258 285 283 274 284 302 307
144 131 122 122 111 92 82 70 80 98 98 324 358 354 16 23 40 50 44 24 10 1 1 348 347 334 349 332 331 297 255 256 264 310 329 329 303 274 270 277 273 261 251
135 136 131 122 112 105 94 98 92 81 68 7 19 37 12 7 19 17 60 34 23 19 4 12 0 352 334 303 312 325 314 268 245 243 290 289 327 291 274 261 261 263 261
131 130 132 130 126 116 105 100 100 97 79 66 38 34 10 356 354 350 16 7 342 313 307 316 330 340 332 323 318 281 277 295 291 275 282 284 280 290 267 271 254 251 252